Zurück zum Katalog

CZ-6A DEB

AktivPO
NORAD 60775·DEBRIS·🇨🇳 China

Gestartet Aug 6, 2024 von Taiyuan Satellite Launch Center

Loading…

Nächste Überflüge (nächste 24 Stunden)

TLE

AktuellSource: Space-Track

Epoche: Sep 14, 2026, 11:14 UTC

1 60775U 24140FA  26257.46869794  .00000566  00000-0  23300-3 0  9999
2 60775  89.0666 270.2837 0026290 259.4037 100.4195 14.25527309108658

Verfolge CZ-6A DEB in Echtzeit mit AllMySat

Download on the App Store